Find Starlink 11186

NORAD ID: 60070 Int'l Des: 2024-113 Owner: SPXS Country: US Constellation: starlink operational
LEOCIRCULAR

Current View

Loading 3D Globe...

About Starlink 11186

Starlink 11186 (NORAD 60070) is a starlink constellation satellite (v2 mini d2c) launched Jun 19, 2024 by SPXS of US. It operates in LEO, CIRCULAR orbit with a mass of 960.00 kg.

About Starlink 11186

Description loading...

Upcoming Passes

Passes for default location (London). Set your location on the main map for personalized predictions.

Altitude History

Loading altitude history...

Two-Line Element Set

1 60070U 24113M 26166.90450541 .00002238 00000-0 23327-4 0 9999
2 60070 53.1582 67.2889 0000971 93.8451 266.2678 15.69710646115397
Epoch: Jun 15, 2026 • Age: 8 hours

Current Status

Altitude 365.0 km
Velocity 7.69 km/s
Sub-Earth Point -18.26°S, 68.25°E
Launch Date Jun 19, 2024
Age 1.9 years
Type internet

Technical Details

Classification Payload
Mass 960.00 kg
Dry Mass 910.00 kg
Total Mass 960.00 kg
Length 0.30 m
Diameter 4.10 m
Span 29.00 m
Shape Box + pan
Manufacturer SPXS
Bus Type Starlink V2MD
Phase Status In Orbit
Owner/State SPXS/US

Most Searched